RH
49 71 88 86 89 89 86 87 85 92 94 88 89 90 92 92 97 99 96 100 95 92 97 98 99 100 101 100 100 99 96 94 93 95 96 94 88 86 85 80 77 67 61 65 73 82 84 83 76 64 54 49
56 68 89 90 86 87 89 85 74 71 74 76 77 82 93 92 95 101 98 101 99 95 96 96 96 98 99 100 100 100 101 100 94 93 97 99 92 87 93 95 92 86 77 69 72 83 86 84 79 68 58 53
65 63 77 80 76 81 82 78 74 73 72 75 78 84 93 94 96 100 99 100 98 95 97 98 98 98 99 98 99 98 99 99 97 95 94 97 96 89 95 101 99 98 95 87 84 86 88 89 85 74 64 58
84 76 79 78 78 87 89 85 85 86 85 85 86 83 79 79 83 86 89 92 92 91 94 97 100 99 99 99 99 97 96 95 95 96 93 93 96 93 92 98 100 100 100 98 93 89 90 93 90 82 75 66
92 90 87 80 78 89 97 95 91 88 87 91 94 91 80 72 73 76 78 81 85 87 88 93 100 100 99 100 100 100 98 94 92 94 94 92 94 94 91 92 96 100 100 98 93 86 86 91 92 88 85 78
81 93 93 90 86 91 96 96 97 94 91 95 98 99 92 84 83 83 83 84 87 88 87 92 99 101 100 100 100 100 101 96 91 90 90 89 90 93 93 92 91 93 95 96 95 89 88 93 94 91 87 85
57 78 88 98 99 98 95 90 94 95 94 97 97 99 98 91 90 92 91 91 93 94 93 95 99 101 101 101 100 99 100 97 91 87 89 89 87 86 87 89 88 88 89 89 89 89 96 100 97 95 90 88
31 55 75 87 94 98 98 92 94 95 94 96 96 99 101 95 96 97 96 95 96 97 95 94 96 99 101 101 100 100 99 99 97 95 96 97 94 89 86 86 88 90 91 89 85 83 92 100 100 100 97 92
15 34 55 71 88 99 99 94 96 98 94 97 98 98 101 99 98 95 94 99 99 95 91 90 92 93 96 98 98 100 100 99 100 100 99 99 99 98 96 94 95 96 96 97 95 89 90 97 100 100 99 98
7 15 29 47 69 84 92 93 93 98 98 99 101 101 101 97 97 95 94 99 100 95 89 86 86 85 86 89 91 95 100 100 99 100 99 99 99 99 100 100 99 100 99 99 101 99 96 98 100 100 100 100
4 7 12 22 42 59 75 86 86 92 99 100 98 98 99 95 97 100 99 99 99 97 93 90 89 83 79 79 83 86 92 98 100 101 100 99 100 99 99 100 99 100 101 100 100 100 100 101 100 100 100 100
4 5 5 9 25 41 50 62 71 79 88 96 99 99 100 99 100 100 99 100 100 100 99 98 98 95 88 81 80 82 84 90 97 100 100 101 100 100 99 100 100 100 100 100 101 100 99 100 100 100 100 100
6 5 6 4 9 18 22 33 56 70 72 79 91 99 100 98 100 100 99 99 98 100 101 99 99 101 99 91 85 86 86 87 91 93 97 99 97 96 95 93 95 98 99 100 100 100 98 97 99 100 100 100
8 6 6 6 4 7 9 14 35 55 64 71 79 90 99 101 101 100 98 100 99 99 100 99 99 100 101 99 95 94 94 90 88 88 93 99 98 95 92 89 88 91 95 98 100 100 99 97 96 97 98 99
9 9 7 7 6 5 6 6 13 25 40 53 56 65 80 90 98 102 99 98 99 100 100 100 100 100 99 99 98 95 94 92 89 89 91 95 97 96 94 91 89 88 90 94 99 100 100 99 96 95 96 98
8 9 9 8 8 7 6 5 6 7 15 30 45 64 75 79 89 98 98 96 97 100 100 100 100 100 99 98 98 95 91 90 90 89 89 90 91 92 92 91 90 90 90 93 97 99 99 100 100 99 99 98
11 10 9 9 9 9 8 7 6 5 11 21 35 56 69 80 91 95 95 94 97 101 100 100 101 100 101 99 98 98 97 95 94 94 91 90 90 90 89 89 90 91 92 94 97 99 99 99 100 100 101 100
18 15 12 11 10 10 10 9 9 6 8 9 13 31 50 70 90 95 96 97 98 102 101 99 101 100 96 93 93 94 97 99 99 100 98 97 97 96 93 91 93 95 95 94 95 99 100 99 99 99 100 100
23 21 18 16 13 12 10 10 11 10 10 7 7 23 36 51 73 78 82 95 99 100 101 100 101 101 96 92 90 85 87 92 94 96 97 97 98 98 97 95 97 98 99 98 97 98 99 99 99 99 100 99
26 25 23 21 18 15 13 12 12 12 12 11 8 10 14 27 53 65 70 88 101 100 99 101 100 100 100 100 94 82 80 83 86 88 90 92 93 92 92 92 93 94 97 98 99 100 100 100 99 99 100 99
28 27 26 24 23 20 18 15 13 13 12 13 13 11 11 11 31 64 79 84 94 100 99 100 103 101 98 102 99 89 86 86 86 85 86 90 93 93 92 90 88 87 88 89 91 95 98 99 100 100 100 100
29 30 29 27 27 24 23 21 18 17 14 14 14 13 17 12 21 57 78 72 71 89 102 99 99 101 98 101 102 97 97 98 94 87 84 87 93 97 95 91 91 88 86 86 88 91 92 94 98 99 100 100
28 29 31 30 30 28 27 26 23 22 19 19 17 14 16 15 19 32 41 38 33 57 96 106 101 101 99 99 101 100 100 101 97 93 92 92 95 100 95 88 88 91 91 93 94 94 94 93 94 95 95 95
28 29 31 31 32 31 31 30 28 28 26 24 22 20 18 15 16 16 16 19 13 22 60 88 94 95 97 99 101 99 98 100 99 97 99 100 101 101 96 90 87 91 94 93 90 88 89 94 96 96 93 94
28 29 30 32 33 33 33 33 32 31 31 30 28 26 25 21 19 17 15 16 16 14 22 37 45 53 67 81 96 104 99 98 100 99 99 100 102 101 99 98 95 96 94 85 80 77 75 78 85 91 93 96
32 32 31 31 33 35 36 35 35 35 34 35 34 32 31 29 26 24 21 17 18 18 16 18 16 19 27 35 62 89 97 100 99 98 102 101 100 100 100 101 100 99 94 87 84 80 71 62 63 70 78 84
36 35 35 34 34 35 36 37 38 38 38 38 38 38 36 35 33 31 29 25 22 20 19 20 18 19 19 13 24 41 61 93 105 97 98 101 101 101 99 100 101 100 99 97 91 82 72 63 56 48 48 56
57 50 43 39 36 36 36 38 40 40 41 41 41 41 41 40 39 37 35 33 31 27 23 23 21 21 21 19 19 14 20 59 94 102 101 100 100 100 100 100 101 100 100 101 97 88 75 62 50 36 42 56
55 61 60 54 46 41 38 37 40 41 42 44 44 45 44 44 45 43 41 40 38 36 32 29 26 24 22 21 21 20 14 22 48 74 89 98 98 97 101 101 100 102 102 100 97 90 74 59 49 43 55 67
20 34 49 58 57 52 45 40 39 40 41 44 45 46 47 47 47 46 45 44 43 43 41 38 34 31 29 27 23 23 22 17 19 27 42 65 74 75 91 103 96 88 91 95 90 79 66 56 50 50 61 63
5 8 17 31 45 52 53 49 44 41 40 42 44 46 47 48 49 49 48 48 47 46 45 44 43 41 37 35 32 28 26 24 22 19 18 29 37 39 65 100 103 86 80 76 68 66 63 55 44 42 58 61
Wind_Speed
30 30 29 27 28 29 28 30 34 34 34 36 39 40 39 39 37 34 35 35 35 34 33 34 35 34 34 36 38 39 40 41 39 36 39 47 52 52 54 54 53 54 55 55 52 51 52 52 53 53 53 53
30 29 29 30 30 31 32 35 37 38 40 40 40 40 37 36 35 32 31 33 34 35 36 36 38 39 39 39 40 42 42 42 42 39 36 39 46 47 48 51 53 53 54 55 54 53 52 53 55 55 54 54
31 32 34 34 33 34 35 36 36 38 41 41 39 40 39 37 37 35 33 34 33 35 37 38 39 41 42 42 42 43 45 44 44 43 40 37 40 43 41 44 50 54 55 54 54 54 53 55 57 57 56 55
31 34 35 35 34 34 36 37 37 37 39 40 39 41 44 44 44 43 41 39 38 37 37 38 39 39 41 42 41 43 45 46 45 45 44 40 39 42 42 41 43 49 54 56 56 55 55 55 57 59 58 57
32 34 34 34 36 37 37 37 37 38 39 40 39 41 44 46 46 46 46 43 41 40 39 39 38 38 38 39 40 41 42 44 45 45 45 44 41 42 45 45 44 45 48 53 56 58 57 56 57 59 60 60
32 34 34 35 37 40 40 39 38 38 40 40 40 40 41 45 46 46 45 43 41 40 40 39 39 38 37 37 38 38 39 39 42 44 45 46 45 44 45 48 50 49 48 49 52 55 58 58 58 60 62 62
32 35 36 36 37 39 41 42 42 41 42 42 40 38 39 42 45 44 44 42 41 40 40 40 39 38 37 37 36 36 35 35 36 39 42 44 46 48 48 48 51 53 53 53 52 53 55 58 60 60 62 63
32 35 35 36 37 39 41 43 44 44 45 45 44 42 41 42 44 44 43 42 42 42 42 41 40 39 38 38 38 37 36 35 34 34 35 37 40 44 48 50 50 53 55 57 57 56 55 57 61 62 63 64
32 34 34 34 36 38 39 41 43 43 44 45 45 45 44 43 44 45 44 43 43 43 44 43 42 41 41 40 40 40 39 38 37 36 34 32 32 35 40 46 49 51 54 57 58 59 57 57 60 63 65 66
31 33 34 36 37 37 36 37 39 40 42 42 42 44 43 42 43 45 45 45 44 45 45 45 44 44 43 42 42 41 40 39 38 37 36 34 33 32 33 37 43 48 52 56 58 60 59 57 58 63 66 68
30 32 34 35 37 37 36 37 37 39 41 41 41 40 40 42 43 45 46 46 45 45 44 44 45 46 46 45 44 42 41 40 39 37 35 35 34 34 33 33 36 41 47 53 56 58 58 56 56 60 65 69
30 31 33 33 35 37 38 40 38 38 39 38 39 39 40 44 44 44 46 44 43 43 43 43 45 46 47 46 45 44 42 41 41 38 36 35 34 34 33 32 33 35 39 44 49 53 55 55 54 57 62 68
30 31 33 33 35 37 39 40 40 38 39 39 40 40 41 43 42 41 42 41 40 42 43 44 46 47 48 48 47 46 43 43 42 41 38 36 36 35 34 33 33 33 35 37 40 45 49 52 53 55 59 65
30 31 33 34 34 36 37 38 40 40 40 41 43 43 42 41 39 38 37 37 39 41 44 46 47 46 47 47 47 47 46 44 44 43 41 39 38 37 37 36 35 35 35 35 37 40 44 48 51 53 56 61
32 32 33 34 35 36 37 38 40 41 41 42 43 44 43 41 39 37 35 36 38 39 40 42 43 43 43 44 45 46 46 46 45 44 44 43 42 41 40 39 38 37 36 36 36 38 40 44 48 51 53 57
34 34 35 36 36 37 38 39 40 41 42 42 42 43 42 40 40 40 37 38 40 39 39 38 38 39 38 40 43 44 45 46 46 46 47 47 47 46 45 44 43 42 40 38 38 38 39 42 45 48 52 55
35 35 36 37 38 38 39 40 41 41 42 42 42 43 42 41 42 43 42 42 43 43 43 42 40 40 39 38 39 41 44 45 46 47 48 49 49 49 49 48 46 45 43 41 40 40 40 41 43 46 50 53
37 37 37 38 38 39 40 40 41 42 43 43 43 43 42 44 45 43 44 45 45 45 46 46 44 44 43 41 40 39 41 42 43 45 45 47 48 48 49 49 47 46 45 44 42 42 42 42 43 45 48 51
38 39 39 39 39 40 40 41 41 42 44 44 45 44 42 44 44 43 45 47 47 46 47 47 46 44 42 41 41 40 40 40 41 42 42 43 44 45 45 46 46 45 45 45 44 44 43 43 43 44 46 49
40 40 41 41 41 41 41 41 42 43 44 44 45 46 45 46 44 45 48 48 47 46 47 48 47 44 41 41 41 39 39 40 41 42 42 41 42 42 43 43 44 44 44 45 46 46 46 45 44 44 45 46
42 42 43 43 42 42 42 43 43 43 44 45 45 46 47 48 48 48 49 48 46 44 44 46 43 40 41 43 42 39 38 39 41 42 43 43 41 41 42 43 43 44 44 45 45 47 47 48 47 46 46 45
45 44 45 45 44 45 45 45 45 44 44 45 46 46 47 49 49 49 52 52 49 46 43 42 41 40 40 41 41 39 39 39 40 42 44 45 44 44 44 44 44 44 44 44 44 44 46 47 48 48 48 47
47 47 47 47 47 47 47 48 48 47 47 47 47 48 48 50 51 52 54 55 53 52 50 47 45 44 42 41 39 40 41 40 40 42 44 46 45 47 50 49 48 47 46 45 44 44 44 45 47 48 49 49
50 51 50 50 50 50 50 50 50 50 50 49 49 49 49 51 53 54 55 55 54 55 57 57 55 52 49 47 43 42 42 39 38 40 43 45 45 47 52 53 52 50 49 48 47 47 46 46 46 46 47 47
52 53 54 53 53 53 53 53 53 53 53 53 52 51 52 52 53 54 54 55 55 55 57 59 60 58 56 56 50 45 44 41 41 43 44 45 47 49 51 52 52 52 51 51 51 50 50 49 48 47 46 46
54 54 55 56 56 56 56 56 55 56 56 56 56 54 55 56 55 55 55 55 56 56 57 57 59 59 58 60 58 53 50 46 43 45 45 45 47 50 51 51 51 53 53 53 53 53 52 51 50 49 48 48
60 58 57 57 58 59 59 58 58 59 59 58 59 58 57 59 59 58 57 56 56 56 57 57 57 58 58 59 61 60 59 57 49 45 46 46 47 50 51 52 53 53 54 54 54 55 54 52 52 51 50 49
62 62 61 60 60 61 61 61 61 61 62 61 61 61 60 61 62 62 60 59 58 58 58 59 58 59 60 59 60 60 62 65 62 57 54 52 51 51 52 53 55 55 55 56 56 56 56 55 54 52 50 49
61 62 63 63 63 64 64 64 65 64 65 64 63 64 64 63 64 65 64 63 62 61 60 61 62 62 62 61 61 61 62 65 68 68 66 64 62 59 58 58 59 59 59 59 59 59 58 57 56 53 52 52
60 61 62 63 64 65 66 66 67 67 68 68 67 67 67 66 67 68 68 67 66 64 64 64 64 64 64 63 63 63 64 65 66 69 69 70 69 67 65 65 65 65 63 62 61 60 59 59 58 56 55 55
61 61 62 63 64 65 66 67 68 69 70 70 70 70 70 70 70 71 71 71 70 69 68 67 67 67 66 66 65 65 66 66 66 67 68 69 69 68 68 69 70 69 67 66 64 62 61 61 61 59 58 56
Wind_Direction
254 255 258 254 253 256 253 256 259 257 256 254 255 262 267 265 262 263 264 262 254 247 248 250 249 246 244 244 244 244 246 247 249 255 254 248 244 243 243 246 247 247 247 248 248 247 246 244 242 240 238 237
252 249 251 250 247 250 249 250 255 256 259 261 260 263 265 260 259 262 261 259 261 263 262 260 259 258 255 252 248 247 249 251 252 254 255 249 245 245 243 243 245 246 247 248 247 247 246 244 241 239 238 237
254 250 249 248 247 250 252 252 255 256 258 259 258 259 260 257 257 262 263 261 261 263 262 260 260 260 259 256 252 250 250 252 254 254 253 251 246 247 247 245 244 245 245 247 247 247 246 246 242 238 236 235
251 251 251 250 248 251 252 252 253 253 255 257 257 258 259 259 260 263 265 264 262 261 261 262 262 262 260 259 256 254 253 254 256 255 253 253 249 247 247 247 247 247 245 244 246 246 246 247 244 240 237 235
252 251 252 252 248 248 250 250 251 252 254 258 260 260 261 262 262 263 264 264 264 264 264 264 264 264 263 261 259 257 257 258 258 257 254 254 253 250 248 248 249 251 248 245 245 246 247 246 245 244 241 237
255 254 251 252 251 248 249 250 251 252 253 256 260 263 263 264 264 264 264 264 263 262 263 264 264 263 264 263 262 260 260 260 260 260 258 256 255 252 250 249 248 250 251 249 247 246 246 245 245 246 244 241
255 255 252 253 255 253 251 250 250 252 253 254 258 262 263 263 264 264 264 263 262 260 259 261 262 261 261 262 262 262 262 262 263 263 261 257 256 254 253 251 248 249 250 250 249 249 247 244 243 244 244 243
254 256 255 255 258 258 257 255 254 254 254 254 256 261 263 262 262 263 264 264 263 261 260 259 260 260 259 260 262 263 263 262 262 262 261 258 257 256 256 254 251 248 248 249 248 248 249 246 244 243 243 243
255 256 257 258 257 259 260 260 259 260 259 258 257 260 263 263 263 263 263 264 263 262 261 260 259 259 259 259 261 264 264 262 261 260 260 261 261 261 259 256 253 250 248 248 246 245 246 247 246 244 242 243
258 256 255 256 257 259 263 263 262 262 263 263 262 262 262 263 263 264 263 263 263 263 262 262 261 259 259 260 262 264 264 263 263 263 262 263 264 264 264 259 255 251 248 246 244 242 242 244 247 246 244 243
262 259 256 255 257 261 264 264 263 263 264 265 265 263 261 264 264 262 261 262 263 264 264 265 265 263 261 262 263 263 263 262 262 264 264 264 263 262 263 263 259 254 249 246 242 240 240 242 246 248 247 245
266 264 261 256 254 256 257 259 263 264 263 262 262 260 258 262 264 261 259 259 261 261 262 264 265 266 264 263 263 263 263 261 260 261 263 262 262 262 263 264 265 262 257 252 248 243 241 241 245 248 249 248
266 265 264 261 256 255 253 255 261 263 261 258 257 258 259 261 265 267 262 261 262 262 261 262 263 265 265 263 262 263 264 262 261 261 261 260 260 261 262 263 263 265 264 262 257 252 247 245 245 247 249 250
264 262 262 262 260 258 254 253 256 259 258 258 257 256 258 263 269 272 266 263 265 263 263 264 263 263 264 264 263 262 263 262 261 261 260 260 260 261 262 262 261 261 263 264 263 259 254 250 248 248 250 251
263 261 260 259 259 258 257 253 253 255 255 257 259 258 259 263 268 269 266 266 266 263 263 265 266 266 265 265 264 263 263 262 261 260 260 261 263 265 265 265 264 263 261 262 263 262 259 255 251 250 250 251
264 262 260 259 257 256 256 255 253 253 254 256 258 258 259 261 264 265 266 268 268 265 262 263 266 267 266 265 264 264 264 263 262 262 261 262 264 266 267 268 267 266 264 262 261 261 260 258 254 252 250 250
266 264 262 260 259 258 257 256 254 253 253 254 255 256 257 259 259 260 262 266 270 270 267 268 269 268 266 264 263 263 263 263 263 263 263 263 264 265 266 267 266 265 264 263 261 260 259 258 256 254 252 250
267 265 264 262 261 260 259 258 256 255 253 252 253 253 254 255 255 255 258 264 269 270 269 271 273 273 271 268 265 263 263 263 263 263 263 264 264 265 265 265 265 263 262 261 261 260 258 256 255 254 253 251
267 266 264 263 261 260 259 258 257 256 255 253 252 252 251 252 255 257 257 261 266 269 270 271 273 274 274 271 268 266 265 265 265 264 264 263 263 263 263 263 263 261 260 258 258 258 257 255 254 253 252 251
265 266 265 263 262 260 259 258 256 255 255 255 253 252 251 250 252 253 254 256 261 267 270 271 271 271 270 270 270 268 267 267 268 267 266 264 263 262 261 260 259 258 257 256 255 255 254 254 253 252 250 249
264 264 264 263 262 261 259 257 256 255 255 254 254 252 251 251 249 250 252 252 254 260 265 267 268 269 269 271 270 267 267 268 268 269 269 267 265 264 262 260 259 258 257 256 254 253 253 253 253 252 250 248
264 263 263 263 262 261 260 258 256 255 254 253 253 252 251 251 249 249 251 249 248 250 256 261 261 262 265 268 266 264 265 266 267 269 269 268 268 267 265 263 261 260 260 259 257 256 254 253 253 253 253 251
263 262 262 261 261 260 259 259 257 255 254 252 252 251 250 250 249 248 249 250 247 245 247 252 253 254 257 261 259 256 259 262 264 268 269 268 268 268 266 264 263 263 262 262 261 260 258 256 255 254 255 255
263 262 261 260 260 259 259 258 258 257 256 254 253 252 252 251 250 250 249 250 249 246 245 248 249 249 249 252 253 250 252 256 258 261 262 262 262 264 265 265 264 264 263 262 261 261 260 259 258 256 256 256
262 261 261 260 259 258 258 257 257 258 258 257 255 254 253 252 251 251 251 250 250 249 247 248 250 250 248 247 248 248 248 251 252 253 254 255 257 259 261 262 262 263 263 262 262 262 261 260 259 258 257 257
261 259 259 259 259 258 258 257 257 257 257 257 257 255 254 254 253 252 251 250 251 250 250 249 250 250 249 246 245 243 244 247 250 252 252 253 254 255 255 256 257 259 261 262 262 261 261 260 259 259 258 257
261 259 257 257 257 257 257 257 257 256 255 255 256 256 256 256 255 253 252 251 251 251 250 250 250 250 250 248 246 243 242 244 247 250 249 250 251 251 251 252 253 256 258 259 260 260 260 259 259 258 258 258
259 259 258 256 255 255 255 255 255 255 255 254 254 255 255 256 257 255 254 253 252 251 250 250 249 249 249 249 249 246 242 242 244 245 244 245 248 250 250 251 253 255 256 257 259 260 259 259 259 258 259 259
258 258 257 256 255 254 254 254 253 254 254 254 253 254 253 254 255 256 255 254 253 252 251 250 250 249 248 248 248 248 246 244 244 244 244 244 246 249 251 252 252 253 254 256 258 259 259 260 259 259 259 258
260 259 257 256 255 254 253 252 252 252 253 253 253 253 253 252 253 254 254 254 253 253 252 252 252 251 250 249 248 248 248 247 246 246 247 247 247 249 250 251 252 252 252 254 256 257 258 259 258 258 258 257
261 260 259 258 256 255 254 253 252 252 252 252 252 252 252 252 252 252 253 254 254 253 252 252 252 252 251 251 250 250 249 249 249 249 249 248 249 249 248 248 250 252 252 253 254 256 257 257 257 257 256 256